STARLINK-2620 (48453 NORAD) Tracking and Keplerian Element Data

This shows tracking and keplerian element data for the satellite.

Feedback or suggestion? Click here.




ElementValue
Catalog48453
NameSTARLINK-2620
Epoch Orbit367
Epoch Day214.91667824
Epoch Year2021
RAAN162.8391
Inclination53.0485
Eccentricity0.0001322
Argument of Perigee63.1935
Mean Anonmoly309.381
Mean Motion15.21817151
Decay Rate-0.00836094
L11 48453U 21040AB 21214.91667824 -.00836094 00000-0 -39430-1 0 9996
L22 48453 53.0485 162.8391 0001322 63.1935 309.3810 15.21817151 3678

Live tracking and technical data element details for STARLINK-2620 (NORAD 48453). STARLINK-2620 can be tracked NOW for your location showing map with azimuth and elevation plus other details from your city location.

Track the satellite on the map from your city or location and see movement details for azimuth, elevation, latitude, longitude, range, height, and movement on the map or in text.







IsCatalogInMostPopularTable: catalog: 48453, numindb: 28
Update: records affected: 1



GetName: 48453 STARLINK-2620

Hit Count: updated at: Tue, 03 Aug 2021 20:57:37 GMT